Location: A�t Lahcen
(32.8243°N, 5.4246°W)
Time: 01:55:09
(UTC+00:00)

COSMO-SKYMED 1 - Pass Details

Date: 27 January 2021
Orbit: 621 x 623 km, 97.9° (Epoch: 27 February)

Event Time Altitude Azimuth Distance (km) Brightness Sun altitude
Rises 06:38:46 0° 203° (SSW) 2,888 5.9 -9.0°
Reaches altitude 10° 06:41:33 10° 222° (SW) 1,987 4.9 -8.4°
Maximum altitude 06:44:30 18° 265° (W) 1,536 4.0 -7.8°
Drops below altitude 10° 06:47:28 10° 309° (NW) 1,996 4.6 -7.2°
Enters shadow 06:49:39 - 325° (NW) 2,683 5.3 -6.8°
